Location: Miles
(41.4492°N, 81.6087°W)
Time: 17:59:57
(UTC+00:00)

Tiros 1 despin weight - Pass Details

Date: 13 September 2024
Orbit: 573 x 615 km, 48.2° (Epoch: 04 October)

Event Time Altitude Azimuth Distance (km) Brightness Sun altitude
Rises 11:33:14 0° 278° (W) 2,888 ? 4.4°
Reaches altitude 10° 11:35:42 10° 287° (WNW) 1,984 ? 4.8°
Maximum altitude 11:39:55 36° 354° (N) 992 ? 5.6°
Drops below altitude 10° 11:44:08 10° 62° (ENE) 1,982 ? 6.4°
Sets 11:46:36 0° 71° (ENE) 2,884 ? 6.9°
